Owensboro, KY

11:39 PM CDT on May 26, 2018 (GMT -0500)
Owensboro-Daviess County

Weather History for KOWB - April, 2014

Change the Weather History Date:

Friday, April 4, 2014

  Actual Average Record
Temperature  
Mean Temperature 53 °F -  
Max Temperature 61 °F 64 °F 85 °F (1934)
Min Temperature 43 °F 43 °F 26 °F (1936)
Degree Days  
Heating Degree Days 12    
Growing Degree Days 3 (Base 50)    
Moisture  
Dew Point 52 °F    
Average Humidity 91    
Maximum Humidity 100    
Minimum Humidity 63    
Precipitation  
Precipitation 0.91 in - - ()
Sea Level Pressure  
Sea Level Pressure 29.77 in    
Wind  
Wind Speed 12 mph (West)    
Max Wind Speed 25 mph    
Max Gust Speed 34 mph    
Visibility 7 miles    
Events Rain , Thunderstorm    
Averages and records for this station are not official NWS values.
T = Trace of Precipitation, MM = Missing Value Source: NWS Daily Summary

Daily Weather History Graph

Daily Weather History Graph

Search for Another Location

Airport or City:

Astronomy

Apr. 04, 2014 Rise Set
Actual Time 6:29 AM CDT 7:14 PM CDT
Civil Twilight 6:02 AM CDT 7:40 PM CDT
Nautical Twilight 5:31 AM CDT 8:12 PM CDT
Astronomical Twilight 4:59 AM CDT 8:44 PM CDT
Moon 9:50 AM CDT (4/4) No Moon Set
Length of Visible Light 13h 37m
Length of Day
12h 44m
Waxing Crescent, 25% of the Moon is Illuminated
Apr 4
Waxing Crescent
Apr 7
First Quarter
Apr 15
Full
Apr 22
Last Quarter
Apr 29
New

Hourly Weather History & Observations

Time (CDT) Temp. Windchill Dew Point Humidity Pressure Visibility Wind Dir Wind Speed Gust Speed Precip Events Conditions
12:41 AM 60.8 °F - 60.8 °F 100% 29.69 in 10.0 mi NNE 13.8 mph 18.4 mph 0.00 in Rain Light Rain
12:56 AM 61.9 °F - 61.9 °F 100% 29.66 in 10.0 mi ESE 9.2 mph - 0.00 in Rain Light Rain
1:06 AM 60.8 °F - 60.8 °F 100% 29.64 in 10.0 mi SE 12.7 mph - 0.00 in   Mostly Cloudy
1:24 AM 60.8 °F - 60.8 °F 100% 29.71 in 8.0 mi West 15.0 mph 34.5 mph 0.01 in Rain Rain
1:32 AM 60.8 °F - 60.8 °F 100% 29.72 in 4.0 mi West 13.8 mph - 0.07 in Rain Heavy Rain
1:41 AM 59.0 °F - 59.0 °F 100% 29.70 in 2.5 mi WNW 11.5 mph - 0.15 in Rain Heavy Rain
1:56 AM 57.9 °F - 57.9 °F 100% 29.70 in 3.0 mi West 11.5 mph - 0.20 in Rain Rain
2:06 AM 57.2 °F - 57.2 °F 100% 29.72 in 3.0 mi West 12.7 mph - 0.04 in Rain Heavy Rain
2:13 AM 57.2 °F - 57.2 °F 100% 29.70 in 2.0 mi West 8.1 mph - 0.07 in Rain Heavy Rain
2:22 AM 57.2 °F - 57.2 °F 100% 29.70 in 3.0 mi WNW 9.2 mph - 0.09 in Rain , Thunderstorm Thunderstorms and Rain
2:43 AM 57.2 °F - 57.2 °F 100% 29.68 in 5.0 mi NNW 10.4 mph - 0.12 in Rain Rain
2:56 AM 57.9 °F - 57.9 °F 100% 29.69 in 5.0 mi NNW 6.9 mph - 0.14 in Rain Heavy Rain
3:21 AM 57.2 °F - 57.2 °F 100% 29.68 in 4.0 mi North 5.8 mph - 0.05 in Rain , Thunderstorm Rain
3:36 AM 57.2 °F - 57.2 °F 100% 29.67 in 4.0 mi NE 4.6 mph - 0.08 in Rain Heavy Rain
3:56 AM 57.9 °F - 57.9 °F 100% 29.67 in 5.0 mi ENE 3.5 mph - 0.13 in Rain Rain
4:13 AM 57.2 °F - 57.2 °F 100% 29.68 in 2.5 mi South 5.8 mph - 0.05 in Rain Heavy Rain
4:33 AM 57.2 °F - 57.2 °F 100% 29.70 in 3.0 mi WSW 6.9 mph - 0.11 in Rain Heavy Rain
4:46 AM 57.2 °F - 57.2 °F 100% 29.72 in 2.5 mi SSW 8.1 mph - 0.17 in Rain Heavy Rain
4:56 AM 56.8 °F - 56.8 °F 100% 29.71 in 2.5 mi SSW 8.1 mph - 0.22 in Rain Heavy Rain
5:09 AM 57.2 °F - 57.2 °F 100% 29.73 in 3.0 mi SSW 9.2 mph - 0.04 in Rain Rain
5:27 AM 57.2 °F - 57.2 °F 100% 29.71 in 6.0 mi South 8.1 mph - 0.08 in Rain , Thunderstorm Light Thunderstorms and Rain
5:48 AM 57.2 °F - 57.2 °F 100% 29.69 in 4.0 mi South 6.9 mph - 0.11 in Rain Rain
5:56 AM 56.8 °F - 56.8 °F 100% 29.69 in 3.0 mi South 11.5 mph - 0.13 in Rain Rain
6:19 AM 57.2 °F - - N/A% 29.62 in 4.0 mi SE 16.1 mph - 0.08 in Rain Rain
6:28 AM 57.2 °F - - N/A% 29.58 in 6.0 mi SE 17.3 mph - 0.09 in Rain , Thunderstorm Thunderstorms and Rain
6:56 AM 56.8 °F - - N/A% 29.60 in 7.0 mi SSE 12.7 mph - 0.09 in   Overcast
7:24 AM 57.2 °F - 57.2 °F 100% 29.63 in 10.0 mi SSW 10.4 mph - 0.00 in   Mostly Cloudy
7:56 AM 56.8 °F - 56.8 °F 100% 29.65 in 10.0 mi SW 9.2 mph - 0.00 in   Mostly Cloudy
8:56 AM 57.9 °F - 57.9 °F 100% 29.69 in 10.0 mi SW 16.1 mph - N/A   Overcast
9:28 AM 60.8 °F - 60.8 °F 100% 29.70 in 10.0 mi WSW 16.1 mph 25.3 mph N/A   Overcast
9:56 AM 52.9 °F - 52.9 °F 100% 29.74 in 6.0 mi WNW 21.9 mph 26.5 mph 0.00 in Rain Light Rain
10:56 AM 52.0 °F - 48.9 °F 89% 29.78 in 10.0 mi WNW 16.1 mph 23.0 mph 0.00 in   Overcast
11:56 AM 50.0 °F - 43.9 °F 79% 29.82 in 10.0 mi WNW 25.3 mph 32.2 mph N/A   Overcast
12:56 PM 50.0 °F - 43.9 °F 79% 29.88 in 10.0 mi WNW 21.9 mph 29.9 mph N/A   Mostly Cloudy
1:56 PM 47.8 °F - 38.8 °F 71% 29.91 in 10.0 mi WNW 21.9 mph 27.6 mph N/A   Mostly Cloudy
3:56 PM 48.9 °F - 38.8 °F 68% 29.94 in 10.0 mi WNW 21.9 mph 26.5 mph N/A   Overcast
4:56 PM 47.8 °F - 37.9 °F 69% 29.97 in 10.0 mi WNW 18.4 mph 26.5 mph N/A   Mostly Cloudy
5:56 PM 46.9 °F - 36.9 °F 68% 29.99 in 10.0 mi WNW 15.0 mph 23.0 mph N/A   Overcast
6:56 PM 45.9 °F 39.7 °F 34.9 °F 66% 30.01 in 10.0 mi WNW 13.8 mph 23.0 mph N/A   Overcast
7:56 PM 45.9 °F 39.7 °F 34.9 °F 66% 30.04 in 10.0 mi WNW 13.8 mph - N/A   Overcast
8:56 PM 45.9 °F 39.7 °F 34.9 °F 66% 30.07 in 10.0 mi WNW 13.8 mph - N/A   Overcast
9:56 PM 45.0 °F 38.9 °F 34.0 °F 65% 30.09 in 10.0 mi NW 12.7 mph - N/A   Overcast
10:56 PM 45.0 °F 39.7 °F 34.0 °F 65% 30.10 in 10.0 mi NNW 10.4 mph - N/A   Overcast
11:56 PM 43.9 °F 36.8 °F 32.0 °F 63% 30.11 in 10.0 mi NNW 15.0 mph - N/A   Overcast